Погода в Бору

Россия / Нижегородская область     56°08′50″N   45°12′36″E
темп.,
°C
ветер,
м/с
пор.,
м/с
влажн.,
%
обл.,
%
осадки,
мм/ч
давл.,
гПа
погр.,
м
28 октября, чт
чт2800:00+4зюз51296100 0.9 1010909
03:00+6з61285100 1.0 10101014
06:00+5зюз41088100 0.0 1010779
09:00+5зюз41086100 0.0 1011476
12:00+7зюз4873100 0.0 1011749
15:00+7зюз3681100 0.2 10101074
18:00+6с2494100 2.3 1012440
21:00+5с3789100 2.8 1014612
29 октября, пт
пт2900:00+4ссв4885100 0.0 1018555
03:000ссв47775 0.0 1022414
06:00−2св257993 0.0 1025310
09:00−1в1263100 0.0 1027343
12:00+2ю234975 0.0 1027510
15:00+3ююз2548100 0.0 1026518
18:00+2ююз31064100 0.0 1025309
21:00+4ююз51287100 0.3 1023634
30 октября, сб
сб3000:00+5зюз51383100 0.2 1022677
03:00+5зюз4139189 0.2 1021455
06:00+5зюз5149599 0.0 1021438
09:00+7зюз51491100 0.0 1021505
12:00+10з5138075 0.0 1022571
15:00+10з4127976 0.0 1022646
18:00+8з413900 0.0 1023439
21:00+8з3119440 0.0 1024368
31 октября, вс
вс3100:00+7зюз299835 0.0 1025226
03:00+6зюз289833 0.0 1025201
06:00+6зюз3109666 0.0 1025245
09:00+7зюз4128345 0.0 1025389
12:00+11зюз5136292 0.0 1025580
15:00+11зюз512637 0.0 1024627
18:00+8зюз5137113 0.0 1024473
21:00+7зюз4137848 0.0 1025409
1 ноября, пн
пн100:00+5зюз311845 0.0 1024328
03:00+4зюз311865 0.0 1024308
06:00+4зюз412855 0.0 1023337
09:00+6зюз4147636 0.0 1023471
12:00+10зюз4125891 0.0 1023563
15:00+10зюз4116076 0.0 1022548
18:00+7зюз3127378 0.0 1023320
21:00+5зюз298327 0.0 1023199